Location: Unspecified
(49.2170°N, 0.0000°E)
Time: 06:30:09
(UTC+00:00)

S-56A Canister/Altair - Pass Details

Date: 22 January 2021
Orbit: 631 x 2501 km, 38.9° (Epoch: 02 March)

Event Time Altitude Azimuth Distance (km) Brightness Sun altitude
Exits shadow 06:12:32 12° 239° (WSW) 2,076 9.3 -14.6°
Maximum altitude 06:16:16 26° 186° (S) 1,585 9.2 -14.0°
Drops below altitude 10° 06:21:32 10° 132° (SE) 2,849 11.5 -13.1°
Sets 06:25:12 0° 121° (ESE) 4,125 12.9 -12.6°
